STARLINK-32808, 62863

Orbit data source: Space-Track

STARLINK-32808, 62863 is a payload satellite owned by SpaceX/Seattle (US) in LEO that was launched on Sat, 01 Feb 2025 UTC via an FALCON 9 launch vehicle from the Air Force Western Test Range (AFWTR). Payload-class satellites include a variety of spacecraft equipped with specific instruments for various scientific and technological missions. These include communications satellites like Starlink; space stations such as the ISS; scientific satellites like the Hubble; Earth observation satellites from companies like Planet Labs, Umbra, and HawkEye 360; GPS; miniature CubeSats for education and research; and military/defense satellites.

Loading next visibility...
Identifier
62863, 2025-022K
Orbit
LEO
Country
Flag of USUS
Related business
Manufacturer
SpaceX/Seattle
Mission
Operational Commercial Communications
Bus & Motor
STARLINK V2M, Unknown motor
Mass
730 kg wet, ~700 kg dry
Launch date (UTC)
2025-02-01 (11 months ago)
Launch vehicle
FALCON 9
Launch site
Air Force Western Test Range (AFWTR)
Object type
Payload
Rocket body
Debris
Shape & HBR
Box + 2 Pan, 17.7 m
Radar Cross Section
33.884 m², Large (>1 m²)

Expand to show TLE details & history
Last TLE update: 14 hours ago

TLE from 14 hours ago
0 STARLINK-32808
1 62863U 25022K   25352.15020638  .00015658  00000-0  53967-3 0  9996
2 62863  53.1590 148.5275 0001319  87.1612 272.9540 15.30200494 49416
Epoch: 2025-12-18T03:36Z
TLE epoch observation values (Epoch: 2025-12-18T03:36:17.831Z)
Latitude
0.00002°
Longitude
7.44337°
Altitude
476.067 km
Speed
7.629 km/s
True Right ascension
09h 54m 06s
True Declination
0° 00' 00"
Sunlit
Object was in full shadow at epoch
Visualization orbit readout
Latitude
Unknown
Longitude
Unknown
Altitude
Unknown
Speed
Unknown
Apparent Right ascension
Unknown
Apparent Declination
Unknown
Sunlit
N/A
Visualization observer readout
Local Sidereal Time
16:09:47
Azimuth
Unknown
Elevation
Unknown
Doppler factor
Unknown
Orbital elements
Apogee altitude
476.374 km
Perigee altitude
474.566 km
Semi-major axis
6,853.607 km
Eccentricity
0.00013
Inclination
53.159°
RAAN
148.5275°
Arg. of periapsis
87.1612°
True anomaly
272.93891°
Mean anomaly
272.954°
Eccentric anomaly
272.94645°
Mean motion
3.82529 °/min
Orbital period
94.11 mins
BSTAR
0.00053967
Loading maneuver chart data...
Computing Atmospheric mass density...
Loading historical data...
Loading historical data...
Loading historical data...
Loading historical data...
Loading historical data...
Loading historical data...
Loading historical data...

Documentation

Showing up to 5 results
|